Location: Boiro
(42.6475°N, 8.8834°W)
Time: 02:52:32
(UTC+01:00)

Vanguard 2 - Pass Details

Date: 03 December 2021
Orbit: 553 x 2936 km, 32.9° (Epoch: 20 January)

Event Time Altitude Azimuth Distance (km) Brightness Sun altitude
Rises 16:47:07 0° 251° (WSW) 3,183 12.0 10.3°
Reaches altitude 10° 16:49:18 10° 242° (WSW) 2,448 12.1 10.0°
Maximum altitude 16:54:40 39° 175° (S) 1,619 9.8 9.2°
Drops below altitude 10° 17:03:03 10° 111° (ESE) 3,852 10.9 8.1°
Sets 17:07:23 0° 105° (ESE) 5,266 11.5 7.5°
